GW4405 Weather Reports


time (UTC)temp
C
wind
direction
speed
KPH
gust
KPH
rain 1hr
cm
rain 24hr
cm
rain mn
cm
humidity
%
barometer
mb
20260507125009 25 306 3.2 4.8 0.00 0.00 0.00 71 1005.9
20260507124505 25 105 3.2 3.2 0.00 0.00 0.00 71 1005.9
20260507124003 25 45 6.4 6.4 0.00 0.00 0.00 71 1005.8
20260507123501 25 31 8.0 12.9 0.00 0.00 0.00 71 1005.7
20260507122956 25 344 6.4 6.4 0.00 0.00 0.00 72 1005.8
20260507122452 25 72 6.4 14.5 0.00 0.00 0.00 72 1005.8
20260507121949 25 5 8.0 12.9 0.00 0.00 0.00 72 1005.8
20260507121444 25 349 4.8 4.8 0.00 0.00 0.00 72 1005.9
20260507120941 25 16 6.4 11.3 0.00 0.00 0.00 72 1005.7
20260507120437 25 324 3.2 3.2 0.00 0.00 0.00 72 1005.7
20260507115933 25 309 6.4 11.3 0.00 0.00 0.00 72 1005.8
20260507115430 25 22 3.2 4.8 0.00 0.00 0.00 73 1005.7
20260507114926 25 337 3.2 4.8 0.00 0.00 0.00 73 1005.6
20260507114422 25 37 6.4 9.7 0.00 0.00 0.00 73 1005.7
20260507113920 25 13 4.8 6.4 0.00 0.00 0.00 73 1005.6
20260507113417 25 5 3.2 6.4 0.00 0.00 0.00 74 1005.6
20260507112914 25 352 6.4 9.7 0.00 0.00 0.00 74 1005.7
20260507112412 24 349 8.0 12.9 0.00 0.00 0.00 74 1005.8
20260507111909 24 191 6.4 6.4 0.00 0.00 0.00 74 1005.6
20260507111406 24 63 9.7 14.5 0.00 0.00 0.00 75 1005.5
20260507110902 24 13 6.4 12.9 0.00 0.00 0.00 75 1005.4
20260507110358 24 334 6.4 9.7 0.00 0.00 0.00 75 1005.5
20260507105855 24 23 12.9 20.9 0.00 0.00 0.00 75 1005.6
20260507105351 24 343 8.0 11.3 0.00 0.00 0.00 75 1005.4
20260507104848 24 39 8.0 11.3 0.00 0.00 0.00 75 1005.4
20260507104345 24 45 9.7 14.5 0.00 0.00 0.00 75 1005.4
20260507103841 24 9 4.8 6.4 0.00 0.00 0.00 75 1005.3
20260507103338 24 340 6.4 9.7 0.00 0.00 0.00 75 1005.2
20260507102834 24 12 6.4 12.9 0.00 0.00 0.00 74 1005.1
20260507102331 24 305 3.2 4.8 0.00 0.00 0.00 74 1005.4
20260507101827 24 25 11.3 14.5 0.00 0.00 0.00 74 1005.3
20260507101327 24 359 6.4 9.7 0.00 0.00 0.00 74 1005.3
20260507100824 24 48 11.3 17.7 0.00 0.00 0.00 74 1005.1
20260507100323 24 37 4.8 6.4 0.00 0.00 0.00 74 1005.5
20260507095821 25 172 4.8 6.4 0.00 0.00 0.00 73 1005.5
20260507095317 24 0 6.4 11.3 0.00 0.00 0.00 74 1005.3
20260507094814 24 36 9.7 20.9 0.00 0.00 0.00 73 1005.2
20260507094310 24 54 3.2 3.2 0.00 0.00 0.00 74 1005.2
20260507093807 25 11 8.0 12.9 0.00 0.00 0.00 73 1005.0
20260507093306 24 31 6.4 11.3 0.00 0.00 0.00 74 1005.2
20260507092804 24 22 4.8 6.4 0.00 0.00 0.00 74 1005.1
20260507092300 24 58 8.0 11.3 0.00 0.00 0.00 75 1005.2
20260507091756 24 45 4.8 6.4 0.00 0.00 0.00 75 1005.1
20260507091253 24 320 11.3 16.1 0.00 0.00 0.00 75 1005.1
20260507090753 24 28 6.4 11.3 0.00 0.00 0.00 75 1005.1
20260507090250 24 72 4.8 6.4 0.00 0.00 0.00 75 1005.1
20260507085747 24 66 9.7 12.9 0.00 0.00 0.00 74 1005.1
20260507085244 24 76 4.8 6.4 0.00 0.00 0.00 75 1005.1
20260507084741 24 347 11.3 16.1 0.00 0.00 0.00 75 1005.0
20260507084237 24 65 4.8 9.7 0.00 0.00 0.00 74 1004.9
20260507083735 25 47 3.2 4.8 0.00 0.00 0.00 73 1005.0
20260507083231 24 56 3.2 3.2 0.00 0.00 0.00 75 1004.9
20260507082728 24 45 6.4 9.7 0.00 0.00 0.00 74 1005.0
20260507082223 25 15 3.2 3.2 0.00 0.00 0.00 75 1005.1
20260507081720 24 65 3.2 3.2 0.00 0.00 0.00 75 1005.2
20260507081217 25 328 3.2 6.4 0.00 0.00 0.00 74 1005.1
20260507080713 25 84 3.2 4.8 0.00 0.00 0.00 75 1005.0
20260507080209 25 27 4.8 6.4 0.00 0.00 0.00 74 1004.9
20260507075705 25 129 3.2 3.2 0.00 0.00 0.00 73 1005.2
20260507075201 25 30 9.7 16.1 0.00 0.00 0.00 74 1005.3
20260507074658 25 37 9.7 14.5 0.00 0.00 0.00 72 1005.3
20260507074156 25 18 4.8 6.4 0.00 0.00 0.00 73 1005.2
20260507073652 25 18 11.3 20.9 0.00 0.00 0.00 72 1005.1
20260507073148 25 116 3.2 4.8 0.00 0.00 0.00 72 1005.3
20260507072647 25 93 3.2 6.4 0.00 0.00 0.00 71 1005.2
20260507072138 25 69 3.2 4.8 0.00 0.00 0.00 72 1005.2
20260507071636 25 20 6.4 6.4 0.00 0.00 0.00 70 1005.4
20260507071132 25 332 9.7 12.9 0.00 0.00 0.00 71 1005.3
20260507070629 26 323 3.2 4.8 0.00 0.00 0.00 69 1005.5
20260507070125 26 11 3.2 3.2 0.00 0.00 0.00 70 1005.3
20260507065621 26 188 4.8 6.4 0.00 0.00 0.00 68 1005.4
20260507065119 26 7 6.4 11.3 0.00 0.00 0.00 69 1005.5
20260507064616 26 27 3.2 4.8 0.00 0.00 0.00 68 1005.5
20260507064115 26 56 6.4 9.7 0.00 0.00 0.00 69 1005.5
20260507063612 26 17 6.4 6.4 0.00 0.00 0.00 67 1005.4
20260507063109 26 3 3.2 3.2 0.00 0.00 0.00 68 1005.6
20260507062605 26 45 4.8 6.4 0.00 0.00 0.00 67 1005.5
20260507062103 26 43 8.0 14.5 0.00 0.00 0.00 68 1005.4
20260507061601 26 353 4.8 9.7 0.00 0.00 0.00 67 1005.8
20260507061059 26 57 6.4 9.7 0.00 0.00 0.00 67 1005.8
20260507060557 26 320 4.8 6.4 0.00 0.00 0.00 67 1006.0
20260507060053 27 152 6.4 11.3 0.00 0.00 0.00 66 1005.8
20260507055553 26 169 3.2 4.8 0.00 0.00 0.00 68 1006.0
20260507055050 26 116 6.4 11.3 0.00 0.00 0.00 67 1006.0
20260507054546 26 354 6.4 6.4 0.00 0.00 0.00 69 1006.1
20260507054043 26 34 1.6 3.2 0.00 0.00 0.00 68 1006.3
20260507053541 26 38 3.2 3.2 0.00 0.00 0.00 69 1006.1
20260507053040 26 76 6.4 9.7 0.00 0.00 0.00 68 1006.2
20260507052537 26 94 9.7 11.3 0.00 0.00 0.00 69 1006.1
20260507052033 27 359 1.6 3.2 0.00 0.00 0.00 67 1006.1
20260507051531 26 58 3.2 4.8 0.00 0.00 0.00 69 1006.3
20260507051028 27 19 3.2 3.2 0.00 0.00 0.00 66 1006.5
20260507050525 27 33 6.4 9.7 0.00 0.00 0.00 67 1006.3
20260507050021 26 137 4.8 6.4 0.00 0.00 0.00 67 1006.5
20260507045518 27 26 4.8 6.4 0.00 0.00 0.00 67 1006.4
20260507045015 26 356 6.4 14.5 0.00 0.00 0.00 69 1006.4
20260507044512 27 31 4.8 6.4 0.00 0.00 0.00 68 1006.6
20260507044008 26 347 4.8 9.7 0.00 0.00 0.00 69 1006.5
20260507043504 27 48 6.4 9.7 0.00 0.00 0.00 68 1006.5
20260507043000 26 60 9.7 11.3 0.00 0.00 0.00 69 1006.6
20260507042458 27 31 3.2 4.8 0.00 0.00 0.00 68 1006.7
20260507041953 27 351 4.8 4.8 0.00 0.00 0.00 69 1006.8
20260507041450 27 11 3.2 4.8 0.00 0.00 0.00 69 1006.6
20260507040947 27 26 4.8 9.7 0.00 0.00 0.00 69 1006.7
20260507040443 27 42 4.8 6.4 0.00 0.00 0.00 68 1006.8
20260507035939 27 359 6.4 6.4 0.00 0.00 0.00 68 1006.9
20260507035436 27 81 3.2 4.8 0.00 0.00 0.00 67 1006.9
20260507034933 27 27 6.4 6.4 0.00 0.00 0.00 67 1006.7
20260507034429 27 18 4.8 9.7 0.00 0.00 0.00 67 1006.9
20260507033928 27 27 8.0 12.9 0.00 0.00 0.00 68 1007.0
20260507033425 27 348 4.8 9.7 0.00 0.00 0.00 69 1006.7
20260507032922 27 46 4.8 4.8 0.00 0.00 0.00 69 1007.0
20260507032419 27 87 8.0 11.3 0.00 0.00 0.00 70 1007.0
20260507031915 27 56 3.2 4.8 0.00 0.00 0.00 69 1007.1
20260507031412 27 17 6.4 9.7 0.00 0.00 0.00 70 1007.3
20260507030908 27 31 6.4 12.9 0.00 0.00 0.00 68 1006.9
20260507030406 27 51 4.8 6.4 0.00 0.00 0.00 69 1007.0
20260507025902 27 156 6.4 6.4 0.00 0.00 0.00 68 1007.1
20260507025400 27 153 3.2 4.8 0.00 0.00 0.00 68 1007.1
20260507024858 28 27 6.4 11.3 0.00 0.00 0.00 67 1007.0
20260507024355 27 14 4.8 9.7 0.00 0.00 0.00 68 1007.1
20260507023850 27 1 8.0 9.7 0.00 0.00 0.00 67 1007.1
20260507023347 27 23 9.7 12.9 0.00 0.00 0.00 69 1007.1
20260507022845 27 7 4.8 6.4 0.00 0.00 0.00 68 1007.0
20260507022341 27 20 4.8 9.7 0.00 0.00 0.00 68 1007.3
20260507021837 27 27 8.0 11.3 0.00 0.00 0.00 68 1007.2
20260507021332 28 47 8.0 9.7 0.00 0.00 0.00 68 1007.3
20260507020831 27 34 8.0 12.9 0.00 0.00 0.00 69 1007.2
20260507020327 28 16 6.4 12.9 0.00 0.00 0.00 68 1007.2
20260507015824 27 27 3.2 9.7 0.00 0.00 0.00 69 1007.1
20260507015322 27 57 4.8 9.7 0.00 0.00 0.00 68 1007.2
20260507014814 28 26 6.4 9.7 0.00 0.00 0.00 69 1007.3
20260507014310 27 344 3.2 4.8 0.00 0.00 0.00 68 1007.1
20260507013806 28 9 8.0 14.5 0.00 0.00 0.00 68 1007.5
20260507013303 28 28 6.4 9.7 0.00 0.00 0.00 68 1007.6
20260507012800 28 9 6.4 16.1 0.00 0.00 0.00 68 1007.6
20260507012256 28 356 6.4 9.7 0.00 0.00 0.00 68 1007.6
20260507011754 28 39 6.4 9.7 0.00 0.00 0.00 67 1007.7
20260507011250 28 277 6.4 9.7 0.00 0.00 0.00 67 1007.5
20260507010749 28 54 3.2 4.8 0.00 0.00 0.00 66 1007.5
20260507010246 28 316 6.4 6.4 0.00 0.00 0.00 66 1007.3
20260507005744 28 81 6.4 9.7 0.00 0.00 0.00 65 1007.5
20260507005240 28 96 8.0 11.3 0.00 0.00 0.00 66 1007.7
20260507004736 29 9 8.0 12.9 0.00 0.00 0.00 64 1007.8
20260507004234 28 161 6.4 9.7 0.00 0.00 0.00 65 1007.7
20260507003730 29 4 6.4 6.4 0.00 0.00 0.00 64 1007.6
20260507003225 28 21 1.6 3.2 0.00 0.00 0.00 66 1007.9
20260507002722 29 8 3.2 4.8 0.00 0.00 0.00 64 1007.8
20260507002218 28 292 6.4 9.7 0.00 0.00 0.00 66 1007.8
20260507001715 28 41 6.4 9.7 0.00 0.00 0.00 65 1008.0
20260507001212 29 67 6.4 11.3 0.00 0.00 0.00 66 1008.0
20260507000708 29 31 3.2 4.8 0.00 0.00 0.00 65 1008.1
20260507000205 29 1 3.2 3.2 0.00 0.00 0.00 65 1007.9
20260506235701 29 39 3.2 4.8 0.00 0.00 0.00 65 1008.0
20260506235157 29 34 1.6 3.2 0.00 0.00 0.00 65 1008.0
20260506234654 29 36 9.7 11.3 0.00 0.00 0.00 64 1007.9
20260506234151 29 323 3.2 4.8 0.00 0.00 0.00 64 1008.0
20260506233648 29 75 4.8 9.7 0.00 0.00 0.00 64 1007.9
20260506233145 30 36 4.8 9.7 0.00 0.00 0.00 64 1008.1
20260506232641 29 55 6.4 11.3 0.00 0.00 0.00 63 1008.0
20260506232136 30 350 8.0 14.5 0.00 0.00 0.00 63 1008.1
20260506231634 29 16 4.8 6.4 0.00 0.00 0.00 64 1008.0
20260506231132 29 30 6.4 9.7 0.00 0.00 0.00 63 1008.1
20260506230629 28 71 4.8 6.4 0.00 0.00 0.00 65 1008.0
20260506230126 29 83 4.8 9.7 0.00 0.00 0.00 64 1008.1
20260506225622 29 98 4.8 4.8 0.00 0.00 0.00 65 1007.9
20260506225119 30 46 3.2 3.2 0.00 0.00 0.00 64 1008.1
20260506224615 30 10 6.4 6.4 0.00 0.00 0.00 64 1008.4
20260506224112 29 81 1.6 1.6 0.00 0.00 0.00 65 1008.1
20260506223608 30 15 4.8 9.7 0.00 0.00 0.00 64 1008.2
20260506223104 29 30 3.2 4.8 0.00 0.00 0.00 65 1008.3
20260506222601 28 5 3.2 6.4 0.00 0.00 0.00 66 1008.3
20260506222058 28 118 3.2 4.8 0.00 0.00 0.00 66 1008.4
20260506221555 28 25 4.8 4.8 0.00 0.00 0.00 66 1008.4
20260506221053 28 109 3.2 3.2 0.00 0.00 0.00 66 1008.3
20260506220549 28 28 6.4 6.4 0.00 0.00 0.00 66 1008.2
20260506220045 28 110 4.8 4.8 0.00 0.00 0.00 66 1008.2
20260506215542 29 34 4.8 6.4 0.00 0.00 0.00 66 1008.4
20260506215037 29 90 3.2 3.2 0.00 0.00 0.00 66 1008.3
20260506214535 29 50 1.6 3.2 0.00 0.00 0.00 65 1008.3
20260506214032 29 59 1.6 3.2 0.00 0.00 0.00 65 1008.3
20260506213530 29 348 6.4 6.4 0.00 0.00 0.00 64 1008.3
20260506213027 29 352 4.8 6.4 0.00 0.00 0.00 64 1008.2
20260506212523 30 28 4.8 6.4 0.00 0.00 0.00 64 1008.1
20260506212018 30 337 4.8 6.4 0.00 0.00 0.00 64 1008.2
20260506211514 30 66 3.2 4.8 0.00 0.00 0.00 63 1008.3
20260506211012 30 62 4.8 4.8 0.00 0.00 0.00 63 1008.3
20260506210508 30 40 4.8 6.4 0.00 0.00 0.00 63 1008.4
20260506210005 30 55 3.2 4.8 0.00 0.00 0.00 62 1008.3
20260506205501 30 170 4.8 4.8 0.00 0.00 0.00 62 1008.3
20260506204957 30 54 3.2 3.2 0.00 0.00 0.00 61 1008.5
20260506204456 31 5 6.4 12.9 0.00 0.00 0.00 59 1008.4
20260506203952 31 26 3.2 4.8 0.00 0.00 0.00 59 1008.5
20260506203450 31 293 6.4 6.4 0.00 0.00 0.00 58 1008.7
20260506202946 31 25 8.0 12.9 0.00 0.00 0.00 58 1008.7
20260506202444 31 32 9.7 16.1 0.00 0.00 0.00 57 1008.6
20260506201940 31 88 8.0 11.3 0.00 0.00 0.00 57 1008.7
20260506201438 31 59 9.7 12.9 0.00 0.00 0.00 56 1008.7
20260506200934 31 106 3.2 4.8 0.00 0.00 0.00 56 1008.8
20260506200430 31 37 8.0 12.9 0.00 0.00 0.00 56 1008.5
20260506195927 32 17 8.0 9.7 0.00 0.00 0.00 56 1008.7
20260506195424 32 12 3.2 4.8 0.00 0.00 0.00 55 1008.7
20260506194921 32 22 6.4 9.7 0.00 0.00 0.00 55 1008.5
20260506194418 32 28 9.7 14.5 0.00 0.00 0.00 55 1008.8
20260506193915 32 33 9.7 20.9 0.00 0.00 0.00 54 1008.7
20260506193412 32 32 4.8 6.4 0.00 0.00 0.00 54 1008.7
20260506192908 32 35 14.5 20.9 0.00 0.00 0.00 53 1008.7
20260506192405 32 330 9.7 11.3 0.00 0.00 0.00 53 1008.9
20260506191902 32 71 8.0 12.9 0.00 0.00 0.00 53 1008.8
20260506191358 32 359 16.1 17.7 0.00 0.00 0.00 52 1009.0
20260506190855 33 312 4.8 6.4 0.00 0.00 0.00 53 1008.9
20260506190352 32 44 4.8 4.8 0.00 0.00 0.00 53 1009.1
20260506185849 32 336 12.9 17.7 0.00 0.00 0.00 52 1009.1
20260506185346 32 325 6.4 6.4 0.00 0.00 0.00 52 1009.2
20260506184843 33 340 9.7 12.9 0.00 0.00 0.00 52 1009.5
20260506184340 33 19 4.8 4.8 0.00 0.00 0.00 52 1009.3
20260506183837 32 313 9.7 14.5 0.00 0.00 0.00 53 1009.4
20260506183332 33 8 14.5 17.7 0.00 0.00 0.00 52 1009.3
20260506182830 33 44 4.8 6.4 0.00 0.00 0.00 52 1009.4
20260506182327 33 24 6.4 9.7 0.00 0.00 0.00 53 1009.4
20260506181825 33 349 9.7 16.1 0.00 0.00 0.00 52 1009.5
20260506181322 33 41 6.4 9.7 0.00 0.00 0.00 53 1009.6
20260506180819 33 58 11.3 16.1 0.00 0.00 0.00 53 1009.5
20260506180315 33 358 8.0 9.7 0.00 0.00 0.00 53 1009.6
20260506175811 33 322 9.7 22.5 0.00 0.00 0.00 52 1009.8
20260506175308 33 64 9.7 16.1 0.00 0.00 0.00 53 1009.7
20260506174806 33 5 6.4 9.7 0.00 0.00 0.00 53 1010.0
20260506174303 33 61 4.8 6.4 0.00 0.00 0.00 53 1010.0
20260506173800 33 301 8.0 14.5 0.00 0.00 0.00 53 1009.9
20260506173257 33 55 8.0 11.3 0.00 0.00 0.00 53 1010.1
20260506172754 33 354 4.8 6.4 0.00 0.00 0.00 53 1010.2
20260506172250 33 343 12.9 16.1 0.00 0.00 0.00 55 1010.2
20260506171748 33 43 6.4 9.7 0.00 0.00 0.00 54 1010.3
20260506171245 33 38 6.4 14.5 0.00 0.00 0.00 52 1010.5
20260506170743 32 23 4.8 6.4 0.00 0.00 0.00 54 1010.5
20260506170239 32 40 9.7 16.1 0.00 0.00 0.00 54 1010.7
20260506165738 32 174 11.3 17.7 0.00 0.00 0.00 52 1010.6
20260506165234 32 12 9.7 11.3 0.00 0.00 0.00 54 1010.6
20260506164732 32 336 8.0 11.3 0.00 0.00 0.00 54 1010.8
20260506164228 32 47 11.3 16.1 0.00 0.00 0.00 54 1011.1
20260506163725 32 234 4.8 6.4 0.00 0.00 0.00 55 1011.0
20260506163220 32 20 16.1 17.7 0.00 0.00 0.00 54 1011.1
20260506162716 32 47 6.4 9.7 0.00 0.00 0.00 55 1011.2
20260506162214 32 48 9.7 12.9 0.00 0.00 0.00 54 1011.4
20260506161711 33 17 8.0 11.3 0.00 0.00 0.00 55 1011.5
20260506161208 32 25 9.7 20.9 0.00 0.00 0.00 55 1011.5
20260506160706 32 26 6.4 11.3 0.00 0.00 0.00 58 1011.7
20260506160202 32 23 4.8 9.7 0.00 0.00 0.00 57 1011.8
20260506155700 33 351 6.4 11.3 0.00 0.00 0.00 56 1011.9
20260506155157 32 56 4.8 6.4 0.00 0.00 0.00 56 1012.0
20260506153259 31 12 14.5 20.9 0.00 0.00 0.00 59 1012.7
20260506152756 31 356 11.3 14.5 0.00 0.00 0.00 59 1012.7
20260506152254 31 322 3.2 4.8 0.00 0.00 0.00 60 1012.9
20260506151752 31 36 3.2 4.8 0.00 0.00 0.00 60 1012.8
20260506151248 31 41 3.2 6.4 0.00 0.00 0.00 62 1012.9
20260506150745 31 317 4.8 6.4 0.00 0.00 0.00 61 1012.9
20260506150242 31 334 3.2 4.8 0.00 0.00 0.00 61 1012.9
20260506145739 30 55 9.7 12.9 0.00 0.00 0.00 61 1013.1
20260506145236 30 20 6.4 12.9 0.00 0.00 0.00 61 1013.1
20260506144733 31 95 3.2 6.4 0.00 0.00 0.00 61 1013.4
20260506144230 30 53 6.4 9.7 0.00 0.00 0.00 61 1013.4
20260506143728 30 18 1.6 3.2 0.00 0.00 0.00 60 1013.4
20260506143225 31 5 17.7 24.1 0.00 0.00 0.00 60 1013.5
20260506142724 30 17 11.3 14.5 0.00 0.00 0.00 62 1013.4
20260506142221 31 95 3.2 3.2 0.00 0.00 0.00 61 1013.5
20260506141719 30 63 1.6 1.6 0.00 0.00 0.00 62 1013.7
20260506141217 30 356 3.2 6.4 0.00 0.00 0.00 62 1013.7
20260506140714 30 316 6.4 9.7 0.00 0.00 0.00 63 1013.7
20260506140211 29 25 8.0 11.3 0.00 0.00 0.00 63 1013.9
20260506135708 29 86 4.8 6.4 0.00 0.00 0.00 64 1013.8
20260506135204 29 52 4.8 4.8 0.00 0.00 0.00 63 1013.9
20260506134701 28 51 3.2 3.2 0.00 0.00 0.00 65 1014.1
20260506134157 28 99 3.2 3.2 0.00 0.00 0.00 64 1014.0
20260506133654 29 14 4.8 6.4 0.00 0.00 0.00 63 1014.1
20260506133151 28 326 3.2 4.8 0.00 0.00 0.00 64 1014.1
20260506132649 28 56 8.0 12.9 0.00 0.00 0.00 66 1014.3
20260506132145 28 13 6.4 6.4 0.00 0.00 0.00 66 1014.1
20260506131643 28 48 4.8 4.8 0.00 0.00 0.00 65 1014.4
20260506131139 28 284 4.8 4.8 0.00 0.00 0.00 63 1014.3
20260506130636 28 27 4.8 11.3 0.00 0.00 0.00 63 1014.4
20260506130133 28 54 3.2 4.8 0.00 0.00 0.00 65 1014.5
20260506125631 28 58 3.2 3.2 0.00 0.00 0.00 65 1014.4